SCP
0 0 0 0 0 0 0 -0 -0 0 -0 0 0 0 0 0 0 0 0 -0 -0 -0 -0 -0 -0 -0 -0 -0 -0 -0 -0 -0 -0 -0 -0 -0 0 0 0 0 0 0 0 -0 -0 -0 -0 -0 -0
0 0 0 0 0 0 -0 -0 -0 -0 -0 0 0 0 -0 0 0 0 0 0 -0 -0 -0 -0 -0 -0 -0 -0 -0 -0 -0 -0 -0 -0 0 0 0 0 0 0 0 0 -0 -0 -0 -0 -0 -0 -0
-0 0 -0 0 -0 0 -0 -0 -0 -0 0 -0 -0 0 0 0 0 0 -0 -0 -0 -0 -0 -0 -0 -0 -0 -0 -0 -0 -0 0 0 0 0 0 0 0 0 -0 -0 -0 -0 -0 -0 -0 -0 -0 -0
0 0 0 0 -0 -0 -0 -0 -0 -0 -0 0 -0 -0 0 0 0 0 -0 -0 -0 -0 -0 -0 -0 -0 -0 -0 -0 -0 0 0 0 0 -0 -0 -0 -0 -0 -0 -0 -0 -0 -0 -0 -0 -0 -0 -0
0 0 0 -0 -0 -0 -0 -0 -0 -0 0 -0 -0 -0 -0 0 0 -0 -0 0 0 -0 -0 -0 -0 -0 -0 -0 0 -0 -0 -0 -0 -0 -0 -0 -0 -0 -0 -0 -0 -0 -0 -0 -0 -0 -0 0 0
0 0 -0 0 -0 -0 -0 -0 -0 -0 0 -0 -0 -0 -0 -0 -0 -0 -0 0 0 0 -0 -0 0 0 0 -0 -0 -0 -0 -0 -0 -0 -0 -0 -0 -0 -0 -0 -0 -0 -0 -0 -0 -0 0 0 0
0 -0 -0 -0 -0 -0 -0 0 0 -0 0 -0 -0 -0 -0 -0 -0 -0 0 0 0 0 -0 -0 -0 0 0 0 0 -0 -0 -0 -0 -0 -0 -0 -0 -0 -0 -0 -0 -0 0 0 0 0 -0 -0 0
0 0 -0 0 0 -0 -0 -0 -0 -0 -0 0 0 0 -0 -0 -0 -0 0 0 0 0 0 0 0 -0 0 0 0 -0 -0 -0 -0 -0 -0 -0 -0 -0 -0 -0 0 0 0 0 0 0 0 0 0
0 0 0 -0 -0 -0 -0 -0 0 0 0 -0 0 -0 -0 -0 -0 -0 -0 -0 0 0 0 0 -0 -0 0 0 0 0 -0 -0 -0 -0 0 0 0 -0 -0 -0 0 0 0 0 0 0 0 0 -0
0 -0 0 -0 0 -0 -0 -0 0 0 0 0 0 -0 -0 -0 -0 -0 -0 -0 -0 -0 -0 0 0 0 0 -0 0 0 -0 -0 -0 0 0 -0 -0 0 0 -0 0 0 0 0 0 0 0 0 0
0 -0 -0 -0 0 0 0 -0 0 -0 -0 0 0 -0 -0 -0 -0 -0 -0 -0 -0 -0 0 -0 -0 -0 -0 0 -0 -0 -0 -0 0 0 0 -0 0 -0 0 0 0 0 0 0 0 0 0 0 0
0 0 0 0 0 0 0 0 -0 -0 0 0 -0 -0 -0 -0 -0 -0 -0 -0 -0 -0 -0 -0 0 -0 -0 0 -0 0 -0 -0 0 0 0 -0 0 -0 0 0 0 0 0 0 0 0 0 0 -0
0 -0 0 0 -0 0 0 -0 0 0 -0 0 -0 -0 -0 -0 -0 -0 -0 -0 -0 -0 -0 0 -0 0 -0 -0 -0 -0 0 -0 0 0 0 0 0 0 -0 -0 0 0 0 0 0 0 0 0 0
0 0 0 0 0 0 0 0 0 -0 -0 -0 -0 -0 -0 -0 -0 -0 -0 -0 -0 -0 -0 -0 -0 -0 0 0 0 0 0 -0 0 -0 -0 0 -0 0 -0 0 0 0 0 0 0 0 0 -0 0
-0 0 -0 -0 -0 0 0 -0 -0 -0 -0 -0 -0 -0 -0 -0 -0 -0 -0 -0 -0 -0 -0 -0 -0 -0 0 0 0 0 -0 0 -0 -0 0 0 -0 0 -0 0 0 0 0 0 0 0 -0 -0 0
-0 -0 -0 -0 0 0 0 -0 -0 -0 0 -0 -0 -0 -0 -0 -0 -0 -0 -0 -0 -0 -0 -0 -0 -0 -0 -0 0 -0 -0 -0 0 -0 0 0 0 -0 0 0 0 0 0 0 0 0 0 -0 0
-0 -0 -0 -0 0 0 0 -0 -0 0 0 0 0 -0 -0 0 0 0 -0 -0 -0 -0 -0 -0 -0 -0 -0 -0 -0 -0 0 -0 -0 -0 -0 0 -0 -0 0 0 0 0 0 0 0 0 0 0 0
0 -0 0 0 0 0 0 -0 0 0 0 0 0 0 0 0 -0 0 -0 -0 -0 -0 -0 -0 -0 0 -0 -0 0 0 0 0 0 0 0 0 0 0 0 0 0 0 0 0 0 0 0 0 0
0 0 0 0 0 0 0 0 -0 0 0 0 0 0 0 0 0 -0 0 -0 -0 0 0 -0 -0 -0 -0 -0 -0 -0 -0 -0 -0 0 -0 0 0 -0 0 0 0 0 0 0 0 0 0 0 0
0 0 0 0 0 -0 0 0 -0 0 0 0 -0 0 0 0 0 0 0 0 -0 0 0 0 -0 -0 -0 0 0 -0 -0 -0 -0 0 0 0 -0 -0 0 0 1 0 0 1 0 0 0 0 0
0 0 0 0 -0 0 0 -0 0 -0 -0 0 0 0 0 0 0 0 0 0 0 0 0 0 0 0 0 0 0 0 -0 -0 -0 0 0 1 0 0 1 1 1 1 1 1 1 0 0 0 0
-0 -0 0 0 0 0 -0 -0 -0 -0 -0 0 0 -0 -0 -0 0 0 0 0 0 0 0 0 0 0 1 0 0 0 0 0 0 0 0 1 1 1 2 2 1 1 1 1 0 0 0 0 0
-0 0 0 0 0 -0 0 0 0 0 0 0 0 0 0 0 0 0 0 0 0 0 0 0 1 1 1 1 0 1 0 0 0 0 2 2 2 3 3 3 2 1 1 1 0 0 0 0 0
0 0 -0 0 0 0 -0 0 -0 0 0 0 0 0 0 0 0 0 0 0 0 0 0 0 1 3 2 2 2 1 1 1 1 1 2 4 5 6 6 3 2 1 2 0 0 0 0 0 0
-0 0 -0 -0 -0 -0 0 0 0 0 0 0 0 0 0 0 0 0 0 0 0 1 1 1 2 3 4 5 4 2 2 3 2 4 4 6 8 8 7 4 2 3 1 0 0 0 0 0 0
-0 -0 0 -0 -0 0 0 0 0 0 0 0 0 0 0 0 0 0 0 0 0 1 1 1 1 1 2 5 6 5 4 3 4 3 4 6 13 12 8 5 3 2 1 1 0 0 0 0 -0
0 0 0 0 0 0 0 0 0 0 0 0 0 0 0 0 0 0 0 0 0 0 0 1 1 1 1 0 2 6 6 6 5 4 5 3 10 15 10 8 7 4 3 1 1 1 1 0 0
0 0 0 0 0 -0 -0 -0 0 0 0 0 0 0 0 0 0 0 0 0 0 0 0 0 0 1 1 1 0 1 4 5 5 5 5 7 4 14 10 10 9 7 4 2 2 2 1 0 0
0 0 0 0 0 0 0 0 0 1 1 0 0 0 0 0 0 0 0 0 0 0 0 0 0 0 0 1 1 0 1 1 2 3 5 7 8 11 10 9 8 8 6 4 3 3 1 0 0
0 0 0 0 0 0 0 0 0 0 0 0 0 0 0 0 0 0 0 0 0 0 0 0 0 0 0 0 0 2 -0 0 2 2 3 5 6 7 9 9 7 6 5 5 4 2 1 0 0
Wind_Speed_500mb
9 9 4 18 14 5 21 25 6 18 10 14 15 14 28 26 30 11 29 24 36 33 38 36 28 24 21 20 19 20 22 24 23 22 24 30 34 30 25 20 17 16 15 14 13 12 10 10 11
9 11 16 25 6 9 18 7 29 26 23 14 11 3 6 27 22 24 27 34 39 34 36 34 26 23 22 22 20 21 24 25 26 27 31 36 33 26 20 16 13 12 11 11 11 10 9 8 8
21 19 32 28 32 14 26 28 24 20 12 7 6 8 12 21 9 21 25 40 36 33 34 32 24 24 23 23 23 23 26 28 29 32 37 34 29 22 16 14 12 11 11 12 11 9 7 7 7
10 24 25 11 18 21 28 25 22 5 15 10 11 23 15 7 14 15 38 41 34 30 29 24 25 24 23 24 26 28 29 31 34 37 35 31 25 20 16 14 14 14 15 15 15 13 11 9 8
19 28 29 24 27 20 18 21 9 14 16 22 9 23 15 13 15 34 41 37 33 30 28 25 26 25 25 27 30 32 33 36 37 37 33 28 24 20 17 15 14 14 14 13 13 12 10 10 9
28 27 9 11 21 13 15 15 13 10 14 19 17 24 21 16 27 34 35 33 31 29 24 28 26 26 27 30 33 35 36 38 38 36 32 27 23 19 15 14 13 13 12 11 10 8 8 10 10
30 25 11 24 22 23 22 7 7 21 16 33 7 25 17 21 27 31 31 31 30 29 26 24 26 28 30 34 37 37 39 40 38 34 30 25 21 16 14 13 12 12 11 10 10 10 11 11 13
26 22 17 3 4 25 15 11 17 11 24 13 11 18 21 27 31 30 31 30 28 27 25 25 28 28 30 35 39 41 42 40 37 32 28 23 18 15 16 13 12 11 11 9 10 13 14 17 21
25 26 0 11 18 22 14 15 8 8 14 7 15 17 22 31 34 33 33 30 28 27 26 27 29 30 30 30 40 43 42 40 36 31 26 21 15 13 5 10 12 12 9 9 13 16 16 22 31
29 18 8 21 12 15 18 11 12 15 14 14 16 20 26 32 34 35 34 33 32 30 30 31 33 33 34 31 38 39 38 36 33 29 26 21 17 15 21 11 13 10 7 10 16 28 26 25 16
31 30 16 11 14 11 8 7 4 5 12 10 17 27 31 33 32 33 32 30 32 33 34 35 36 37 35 33 35 31 30 29 27 26 28 15 20 17 14 7 8 7 6 12 22 22 9 2 6
25 26 13 3 5 6 8 7 7 11 7 11 18 32 36 36 34 33 32 32 34 36 37 38 39 40 37 34 35 33 32 30 28 29 31 21 21 15 14 21 16 11 4 11 9 7 11 7 10
24 29 14 10 14 11 9 18 18 20 15 7 23 33 34 34 32 31 30 31 35 38 39 40 40 42 39 38 36 32 31 31 29 29 30 23 20 17 15 12 11 9 12 11 13 11 11 10 9
11 16 24 21 23 13 18 22 10 24 17 17 26 31 33 34 34 33 34 36 38 39 42 41 40 41 39 39 37 35 34 32 31 29 29 29 23 20 18 15 14 14 12 12 13 13 12 11 9
19 27 29 33 32 14 10 25 22 17 23 24 26 28 33 35 37 38 39 41 43 44 44 46 46 44 45 43 41 38 34 32 33 32 32 33 29 23 22 19 18 17 14 14 15 17 15 13 11
30 32 32 34 33 23 14 36 36 33 23 24 25 27 32 36 39 39 41 43 45 46 49 49 47 47 53 46 44 38 36 36 35 35 34 35 32 28 29 22 20 17 15 15 16 16 16 15 15
32 28 36 39 21 19 18 37 21 16 23 22 28 27 30 36 40 42 44 47 49 51 52 53 53 51 50 55 44 43 41 40 38 37 37 36 36 32 31 23 21 23 14 14 15 16 17 18 17
30 38 30 28 11 17 33 31 34 22 22 25 32 30 28 35 41 43 45 46 50 54 56 61 58 61 59 52 52 43 43 44 42 41 41 39 36 36 37 26 27 30 18 16 16 18 20 21 20
27 27 27 26 15 11 26 34 38 27 22 19 36 34 35 32 37 45 50 54 57 60 69 68 69 65 65 62 55 54 53 50 48 47 48 47 42 39 43 30 35 35 24 23 29 25 21 21 23
23 25 27 29 32 31 29 36 39 27 36 24 34 26 25 32 35 47 55 58 60 64 74 81 81 82 81 64 62 57 57 54 55 53 54 53 49 47 45 42 37 32 29 32 34 31 22 23 26
24 25 23 23 27 18 30 38 39 37 43 34 23 29 35 35 31 44 51 58 60 64 68 70 82 81 85 80 63 63 57 60 58 58 53 57 59 51 54 52 47 40 35 40 30 31 33 24 29
25 31 19 15 19 25 26 23 27 42 34 24 28 30 34 38 22 23 43 53 60 62 59 62 70 84 88 85 80 72 73 72 68 56 53 54 61 57 57 53 51 44 42 53 42 33 35 37 31
13 11 10 16 23 26 30 16 21 15 9 16 30 11 29 27 20 11 22 39 48 52 58 60 68 77 86 92 95 97 86 78 73 72 61 63 63 64 63 58 55 43 54 61 58 42 42 47 47
24 12 25 26 26 25 30 25 22 7 16 11 19 24 17 15 10 6 6 7 19 35 47 57 66 82 83 85 98 101 98 95 73 79 77 68 72 77 83 64 63 50 49 68 70 60 51 47 50
22 18 19 21 23 25 11 11 17 23 16 16 18 19 13 11 14 15 17 15 14 19 18 20 49 71 84 87 86 101 110 102 107 88 85 76 80 92 87 78 73 61 65 63 72 68 60 52 55
36 23 22 27 20 19 21 11 15 16 21 20 20 16 13 15 16 18 21 21 20 22 22 21 21 33 39 78 89 91 97 107 113 110 104 93 91 105 101 80 88 79 71 56 69 77 61 49 62
10 21 19 23 28 23 29 30 31 36 25 27 20 14 15 16 18 20 22 23 23 24 25 24 22 25 29 55 56 80 85 90 93 96 93 112 94 102 114 107 99 105 96 71 68 80 74 63 71
21 21 15 19 27 30 27 25 17 27 24 20 18 16 16 18 22 24 24 25 25 25 25 26 27 28 27 27 31 51 68 76 80 86 90 94 105 98 106 113 110 111 109 99 87 79 84 70 77
10 22 16 17 18 25 25 14 22 19 17 14 15 16 19 21 24 26 27 27 27 28 29 30 31 31 31 31 28 32 42 56 70 78 82 87 89 95 99 89 108 117 120 115 103 91 85 79 80
21 30 30 23 26 25 27 22 23 16 18 8 11 15 19 22 25 27 29 30 31 32 33 34 36 36 35 36 37 31 36 39 52 64 69 75 82 93 98 100 101 115 123 123 117 104 93 90 81
Wind_Direction_500mb
220 225 194 255 250 238 225 97 166 99 101 47 39 15 8 24 11 57 138 145 151 153 162 163 173 164 164 155 153 158 161 161 158 150 143 142 142 138 128 123 122 121 126 127 128 129 123 105 82
191 224 241 263 100 277 84 115 59 44 61 58 50 96 124 80 58 118 134 146 152 154 154 163 174 164 163 154 157 160 160 158 154 149 145 145 144 139 136 135 134 135 136 135 134 132 121 98 73
186 235 274 238 169 204 86 72 82 75 80 100 143 3 40 63 100 130 147 147 154 153 153 171 163 165 162 155 159 161 159 156 153 151 148 146 148 147 142 138 136 131 122 113 110 109 100 76 57
213 247 242 338 290 36 62 94 70 99 115 35 36 101 99 71 133 155 142 149 150 152 160 157 163 164 162 159 162 162 158 156 153 152 151 152 151 146 145 141 129 115 101 91 85 79 69 52 43
240 260 261 222 68 90 80 48 63 85 73 58 358 82 72 110 134 140 147 151 149 152 165 165 166 165 163 163 163 161 159 157 154 155 158 153 150 149 144 136 120 107 98 93 89 83 69 52 50
245 254 284 312 94 97 79 67 57 25 62 80 88 105 83 134 142 147 151 153 155 156 161 175 169 168 165 165 164 162 159 157 158 161 158 153 151 151 143 127 120 113 106 94 85 71 56 44 50
251 268 261 230 109 80 57 64 75 71 49 48 52 69 112 147 155 155 156 157 159 160 164 159 168 170 167 166 164 163 160 161 163 162 159 155 156 147 132 126 123 122 106 86 69 56 50 59 70
278 279 206 200 94 81 107 126 96 331 81 73 3 25 136 156 159 161 160 162 164 163 171 166 167 168 168 168 166 164 163 166 167 165 160 159 149 139 125 114 117 125 108 84 73 75 77 87 85
251 269 298 71 53 110 138 128 148 104 123 59 58 52 128 157 158 162 164 168 169 171 172 168 167 170 163 172 169 166 168 171 170 167 164 152 138 129 114 135 135 132 113 91 92 75 75 96 85
242 273 38 43 52 49 100 339 130 208 154 148 106 104 132 151 163 168 173 175 176 176 174 170 167 168 163 170 176 170 174 174 171 170 169 141 168 169 177 157 142 129 112 117 101 83 77 85 77
227 268 66 84 37 346 43 205 175 219 231 140 156 146 151 157 168 174 179 180 180 176 174 172 168 167 170 172 172 172 179 181 180 183 179 155 184 187 174 182 161 133 77 126 120 80 73 51 79
245 242 278 344 125 271 308 344 236 233 306 53 134 157 159 164 173 179 180 180 178 178 177 175 175 171 174 176 173 178 181 185 186 189 188 190 182 192 203 215 157 169 153 196 168 138 156 131 110
240 269 247 238 245 259 313 269 253 264 193 149 140 160 165 170 175 179 182 181 178 180 181 179 182 177 180 178 178 185 185 189 191 195 197 193 189 203 204 215 199 187 194 181 185 193 153 145 133
304 274 277 259 259 240 246 265 212 230 186 171 166 176 177 178 178 180 183 183 183 183 186 184 188 188 183 182 187 189 190 197 195 200 208 195 202 209 206 211 201 202 194 193 188 194 176 155 152
265 259 252 241 236 249 265 261 207 234 171 185 183 189 187 187 184 185 186 186 187 188 189 189 188 196 188 196 194 195 202 199 199 205 206 209 207 214 205 212 206 204 200 197 188 191 181 178 172
245 249 251 240 220 217 231 272 202 175 177 197 197 201 199 196 193 189 189 190 192 192 193 192 195 202 201 203 203 201 203 202 208 207 214 215 211 199 216 211 213 210 201 197 199 193 190 189 183
232 250 236 247 182 255 201 258 128 152 188 229 196 217 210 204 203 197 195 193 194 195 198 198 201 203 209 201 206 204 209 210 212 213 213 221 211 214 211 211 217 210 203 211 209 209 199 197 193
237 223 234 274 175 196 255 233 273 256 217 236 245 219 214 218 208 205 202 200 198 199 203 204 205 199 214 215 205 213 212 218 214 217 216 219 214 213 227 212 211 229 213 208 213 222 212 205 201
324 304 309 304 265 277 273 283 274 265 260 221 250 238 211 222 220 209 209 205 202 202 203 211 207 213 203 212 211 211 215 217 219 218 220 217 217 213 225 209 222 226 211 200 219 215 215 210 203
263 264 262 266 272 268 266 265 262 252 265 241 262 264 258 205 214 215 210 212 209 208 213 213 215 214 215 213 215 219 219 221 221 219 219 220 220 213 217 206 220 229 214 219 227 211 210 214 215
241 263 262 270 297 252 263 261 263 260 256 258 269 267 267 275 223 207 214 213 216 216 215 219 224 222 224 216 220 221 223 227 228 225 223 219 215 220 221 220 216 232 228 237 231 223 201 218 227
260 218 238 270 262 264 216 268 252 220 229 206 241 245 246 241 213 256 214 216 219 224 222 223 233 229 229 230 219 223 223 223 225 227 226 225 222 214 225 228 230 244 245 246 242 232 218 209 230
281 11 268 274 274 274 263 238 274 98 199 254 244 255 21 4 359 323 228 224 228 232 231 228 231 239 234 233 231 226 228 226 223 226 223 225 229 219 224 227 243 246 264 244 246 227 213 229 222
275 264 248 244 253 253 238 258 260 274 169 182 80 62 32 27 39 27 356 298 248 240 239 234 233 239 249 245 242 237 230 232 225 225 224 220 219 230 229 224 226 237 245 252 242 237 236 220 228
233 250 255 233 230 234 158 245 285 326 40 29 40 78 71 46 59 48 46 37 11 343 296 262 234 239 245 248 252 252 244 233 240 228 224 220 220 223 227 224 213 228 242 252 235 235 226 256 226
210 238 260 300 296 305 134 244 270 89 82 90 86 81 53 39 41 36 41 32 27 16 6 350 308 276 256 252 256 256 254 250 238 240 231 227 224 222 239 223 221 228 237 249 235 234 227 240 220
271 235 269 288 275 268 274 276 246 140 118 110 104 88 53 34 33 29 27 24 20 19 15 7 349 321 299 261 260 254 255 245 242 240 239 233 234 229 231 237 226 228 238 240 236 232 229 238 228
257 306 273 229 252 261 258 275 35 127 117 111 97 73 51 21 17 14 15 17 14 7 2 357 357 357 338 318 279 257 254 252 249 249 242 239 235 238 231 229 232 233 237 236 233 232 232 231 230
194 231 226 256 299 300 296 295 75 73 69 88 79 45 27 11 8 360 358 2 3 359 357 354 354 353 349 343 323 293 266 258 258 252 251 243 240 236 235 228 229 234 235 236 229 231 229 231 227
290 286 288 279 274 272 284 283 105 116 114 75 47 28 6 1 356 349 351 351 352 350 348 348 348 349 346 343 338 326 289 270 263 257 254 249 242 236 239 232 231 234 238 238 233 226 228 232 227
Wind_Speed_850mb
9 9 4 18 14 5 21 25 6 18 10 14 15 14 28 26 30 11 29 24 36 33 38 36 28 24 21 20 19 20 22 24 23 22 24 30 34 30 25 20 17 16 15 14 13 12 10 10 11
9 11 16 25 6 9 18 7 29 26 23 14 11 3 6 27 22 24 27 34 39 34 36 34 26 23 22 22 20 21 24 25 26 27 31 36 33 26 20 16 13 12 11 11 11 10 9 8 8
21 19 32 28 32 14 26 28 24 20 12 7 6 8 12 21 9 21 25 40 36 33 34 32 24 24 23 23 23 23 26 28 29 32 37 34 29 22 16 14 12 11 11 12 11 9 7 7 7
10 24 25 11 18 21 28 25 22 5 15 10 11 23 15 7 14 15 38 41 34 30 29 24 25 24 23 24 26 28 29 31 34 37 35 31 25 20 16 14 14 14 15 15 15 13 11 9 8
19 28 29 24 27 20 18 21 9 14 16 22 9 23 15 13 15 34 41 37 33 30 28 25 26 25 25 27 30 32 33 36 37 37 33 28 24 20 17 15 14 14 14 13 13 12 10 10 9
28 27 9 11 21 13 15 15 13 10 14 19 17 24 21 16 27 34 35 33 31 29 24 28 26 26 27 30 33 35 36 38 38 36 32 27 23 19 15 14 13 13 12 11 10 8 8 10 10
30 25 11 24 22 23 22 7 7 21 16 33 7 25 17 21 27 31 31 31 30 29 26 24 26 28 30 34 37 37 39 40 38 34 30 25 21 16 14 13 12 12 11 10 10 10 11 11 13
26 22 17 3 4 25 15 11 17 11 24 13 11 18 21 27 31 30 31 30 28 27 25 25 28 28 30 35 39 41 42 40 37 32 28 23 18 15 16 13 12 11 11 9 10 13 14 17 21
25 26 0 11 18 22 14 15 8 8 14 7 15 17 22 31 34 33 33 30 28 27 26 27 29 30 30 30 40 43 42 40 36 31 26 21 15 13 5 10 12 12 9 9 13 16 16 22 31
29 18 8 21 12 15 18 11 12 15 14 14 16 20 26 32 34 35 34 33 32 30 30 31 33 33 34 31 38 39 38 36 33 29 26 21 17 15 21 11 13 10 7 10 16 28 26 25 16
31 30 16 11 14 11 8 7 4 5 12 10 17 27 31 33 32 33 32 30 32 33 34 35 36 37 35 33 35 31 30 29 27 26 28 15 20 17 14 7 8 7 6 12 22 22 9 2 6
25 26 13 3 5 6 8 7 7 11 7 11 18 32 36 36 34 33 32 32 34 36 37 38 39 40 37 34 35 33 32 30 28 29 31 21 21 15 14 21 16 11 4 11 9 7 11 7 10
24 29 14 10 14 11 9 18 18 20 15 7 23 33 34 34 32 31 30 31 35 38 39 40 40 42 39 38 36 32 31 31 29 29 30 23 20 17 15 12 11 9 12 11 13 11 11 10 9
11 16 24 21 23 13 18 22 10 24 17 17 26 31 33 34 34 33 34 36 38 39 42 41 40 41 39 39 37 35 34 32 31 29 29 29 23 20 18 15 14 14 12 12 13 13 12 11 9
19 27 29 33 32 14 10 25 22 17 23 24 26 28 33 35 37 38 39 41 43 44 44 46 46 44 45 43 41 38 34 32 33 32 32 33 29 23 22 19 18 17 14 14 15 17 15 13 11
30 32 32 34 33 23 14 36 36 33 23 24 25 27 32 36 39 39 41 43 45 46 49 49 47 47 53 46 44 38 36 36 35 35 34 35 32 28 29 22 20 17 15 15 16 16 16 15 15
32 28 36 39 21 19 18 37 21 16 23 22 28 27 30 36 40 42 44 47 49 51 52 53 53 51 50 55 44 43 41 40 38 37 37 36 36 32 31 23 21 23 14 14 15 16 17 18 17
30 38 30 28 11 17 33 31 34 22 22 25 32 30 28 35 41 43 45 46 50 54 56 61 58 61 59 52 52 43 43 44 42 41 41 39 36 36 37 26 27 30 18 16 16 18 20 21 20
27 27 27 26 15 11 26 34 38 27 22 19 36 34 35 32 37 45 50 54 57 60 69 68 69 65 65 62 55 54 53 50 48 47 48 47 42 39 43 30 35 35 24 23 29 25 21 21 23
23 25 27 29 32 31 29 36 39 27 36 24 34 26 25 32 35 47 55 58 60 64 74 81 81 82 81 64 62 57 57 54 55 53 54 53 49 47 45 42 37 32 29 32 34 31 22 23 26
24 25 23 23 27 18 30 38 39 37 43 34 23 29 35 35 31 44 51 58 60 64 68 70 82 81 85 80 63 63 57 60 58 58 53 57 59 51 54 52 47 40 35 40 30 31 33 24 29
25 31 19 15 19 25 26 23 27 42 34 24 28 30 34 38 22 23 43 53 60 62 59 62 70 84 88 85 80 72 73 72 68 56 53 54 61 57 57 53 51 44 42 53 42 33 35 37 31
13 11 10 16 23 26 30 16 21 15 9 16 30 11 29 27 20 11 22 39 48 52 58 60 68 77 86 92 95 97 86 78 73 72 61 63 63 64 63 58 55 43 54 61 58 42 42 47 47
24 12 25 26 26 25 30 25 22 7 16 11 19 24 17 15 10 6 6 7 19 35 47 57 66 82 83 85 98 101 98 95 73 79 77 68 72 77 83 64 63 50 49 68 70 60 51 47 50
22 18 19 21 23 25 11 11 17 23 16 16 18 19 13 11 14 15 17 15 14 19 18 20 49 71 84 87 86 101 110 102 107 88 85 76 80 92 87 78 73 61 65 63 72 68 60 52 55
36 23 22 27 20 19 21 11 15 16 21 20 20 16 13 15 16 18 21 21 20 22 22 21 21 33 39 78 89 91 97 107 113 110 104 93 91 105 101 80 88 79 71 56 69 77 61 49 62
10 21 19 23 28 23 29 30 31 36 25 27 20 14 15 16 18 20 22 23 23 24 25 24 22 25 29 55 56 80 85 90 93 96 93 112 94 102 114 107 99 105 96 71 68 80 74 63 71
21 21 15 19 27 30 27 25 17 27 24 20 18 16 16 18 22 24 24 25 25 25 25 26 27 28 27 27 31 51 68 76 80 86 90 94 105 98 106 113 110 111 109 99 87 79 84 70 77
10 22 16 17 18 25 25 14 22 19 17 14 15 16 19 21 24 26 27 27 27 28 29 30 31 31 31 31 28 32 42 56 70 78 82 87 89 95 99 89 108 117 120 115 103 91 85 79 80
21 30 30 23 26 25 27 22 23 16 18 8 11 15 19 22 25 27 29 30 31 32 33 34 36 36 35 36 37 31 36 39 52 64 69 75 82 93 98 100 101 115 123 123 117 104 93 90 81
Wind_Direction_850mb
220 225 194 255 250 238 225 97 166 99 101 47 39 15 8 24 11 57 138 145 151 153 162 163 173 164 164 155 153 158 161 161 158 150 143 142 142 138 128 123 122 121 126 127 128 129 123 105 82
191 224 241 263 100 277 84 115 59 44 61 58 50 96 124 80 58 118 134 146 152 154 154 163 174 164 163 154 157 160 160 158 154 149 145 145 144 139 136 135 134 135 136 135 134 132 121 98 73
186 235 274 238 169 204 86 72 82 75 80 100 143 3 40 63 100 130 147 147 154 153 153 171 163 165 162 155 159 161 159 156 153 151 148 146 148 147 142 138 136 131 122 113 110 109 100 76 57
213 247 242 338 290 36 62 94 70 99 115 35 36 101 99 71 133 155 142 149 150 152 160 157 163 164 162 159 162 162 158 156 153 152 151 152 151 146 145 141 129 115 101 91 85 79 69 52 43
240 260 261 222 68 90 80 48 63 85 73 58 358 82 72 110 134 140 147 151 149 152 165 165 166 165 163 163 163 161 159 157 154 155 158 153 150 149 144 136 120 107 98 93 89 83 69 52 50
245 254 284 312 94 97 79 67 57 25 62 80 88 105 83 134 142 147 151 153 155 156 161 175 169 168 165 165 164 162 159 157 158 161 158 153 151 151 143 127 120 113 106 94 85 71 56 44 50
251 268 261 230 109 80 57 64 75 71 49 48 52 69 112 147 155 155 156 157 159 160 164 159 168 170 167 166 164 163 160 161 163 162 159 155 156 147 132 126 123 122 106 86 69 56 50 59 70
278 279 206 200 94 81 107 126 96 331 81 73 3 25 136 156 159 161 160 162 164 163 171 166 167 168 168 168 166 164 163 166 167 165 160 159 149 139 125 114 117 125 108 84 73 75 77 87 85
251 269 298 71 53 110 138 128 148 104 123 59 58 52 128 157 158 162 164 168 169 171 172 168 167 170 163 172 169 166 168 171 170 167 164 152 138 129 114 135 135 132 113 91 92 75 75 96 85
242 273 38 43 52 49 100 339 130 208 154 148 106 104 132 151 163 168 173 175 176 176 174 170 167 168 163 170 176 170 174 174 171 170 169 141 168 169 177 157 142 129 112 117 101 83 77 85 77
227 268 66 84 37 346 43 205 175 219 231 140 156 146 151 157 168 174 179 180 180 176 174 172 168 167 170 172 172 172 179 181 180 183 179 155 184 187 174 182 161 133 77 126 120 80 73 51 79
245 242 278 344 125 271 308 344 236 233 306 53 134 157 159 164 173 179 180 180 178 178 177 175 175 171 174 176 173 178 181 185 186 189 188 190 182 192 203 215 157 169 153 196 168 138 156 131 110
240 269 247 238 245 259 313 269 253 264 193 149 140 160 165 170 175 179 182 181 178 180 181 179 182 177 180 178 178 185 185 189 191 195 197 193 189 203 204 215 199 187 194 181 185 193 153 145 133
304 274 277 259 259 240 246 265 212 230 186 171 166 176 177 178 178 180 183 183 183 183 186 184 188 188 183 182 187 189 190 197 195 200 208 195 202 209 206 211 201 202 194 193 188 194 176 155 152
265 259 252 241 236 249 265 261 207 234 171 185 183 189 187 187 184 185 186 186 187 188 189 189 188 196 188 196 194 195 202 199 199 205 206 209 207 214 205 212 206 204 200 197 188 191 181 178 172
245 249 251 240 220 217 231 272 202 175 177 197 197 201 199 196 193 189 189 190 192 192 193 192 195 202 201 203 203 201 203 202 208 207 214 215 211 199 216 211 213 210 201 197 199 193 190 189 183
232 250 236 247 182 255 201 258 128 152 188 229 196 217 210 204 203 197 195 193 194 195 198 198 201 203 209 201 206 204 209 210 212 213 213 221 211 214 211 211 217 210 203 211 209 209 199 197 193
237 223 234 274 175 196 255 233 273 256 217 236 245 219 214 218 208 205 202 200 198 199 203 204 205 199 214 215 205 213 212 218 214 217 216 219 214 213 227 212 211 229 213 208 213 222 212 205 201
324 304 309 304 265 277 273 283 274 265 260 221 250 238 211 222 220 209 209 205 202 202 203 211 207 213 203 212 211 211 215 217 219 218 220 217 217 213 225 209 222 226 211 200 219 215 215 210 203
263 264 262 266 272 268 266 265 262 252 265 241 262 264 258 205 214 215 210 212 209 208 213 213 215 214 215 213 215 219 219 221 221 219 219 220 220 213 217 206 220 229 214 219 227 211 210 214 215
241 263 262 270 297 252 263 261 263 260 256 258 269 267 267 275 223 207 214 213 216 216 215 219 224 222 224 216 220 221 223 227 228 225 223 219 215 220 221 220 216 232 228 237 231 223 201 218 227
260 218 238 270 262 264 216 268 252 220 229 206 241 245 246 241 213 256 214 216 219 224 222 223 233 229 229 230 219 223 223 223 225 227 226 225 222 214 225 228 230 244 245 246 242 232 218 209 230
281 11 268 274 274 274 263 238 274 98 199 254 244 255 21 4 359 323 228 224 228 232 231 228 231 239 234 233 231 226 228 226 223 226 223 225 229 219 224 227 243 246 264 244 246 227 213 229 222
275 264 248 244 253 253 238 258 260 274 169 182 80 62 32 27 39 27 356 298 248 240 239 234 233 239 249 245 242 237 230 232 225 225 224 220 219 230 229 224 226 237 245 252 242 237 236 220 228
233 250 255 233 230 234 158 245 285 326 40 29 40 78 71 46 59 48 46 37 11 343 296 262 234 239 245 248 252 252 244 233 240 228 224 220 220 223 227 224 213 228 242 252 235 235 226 256 226
210 238 260 300 296 305 134 244 270 89 82 90 86 81 53 39 41 36 41 32 27 16 6 350 308 276 256 252 256 256 254 250 238 240 231 227 224 222 239 223 221 228 237 249 235 234 227 240 220
271 235 269 288 275 268 274 276 246 140 118 110 104 88 53 34 33 29 27 24 20 19 15 7 349 321 299 261 260 254 255 245 242 240 239 233 234 229 231 237 226 228 238 240 236 232 229 238 228
257 306 273 229 252 261 258 275 35 127 117 111 97 73 51 21 17 14 15 17 14 7 2 357 357 357 338 318 279 257 254 252 249 249 242 239 235 238 231 229 232 233 237 236 233 232 232 231 230
194 231 226 256 299 300 296 295 75 73 69 88 79 45 27 11 8 360 358 2 3 359 357 354 354 353 349 343 323 293 266 258 258 252 251 243 240 236 235 228 229 234 235 236 229 231 229 231 227
290 286 288 279 274 272 284 283 105 116 114 75 47 28 6 1 356 349 351 351 352 350 348 348 348 349 346 343 338 326 289 270 263 257 254 249 242 236 239 232 231 234 238 238 233 226 228 232 227